Location: Al Mulaqqa?ah
(24.1833°N, 32.8833°E)
Time: 14:39:22
(UTC+00:00)

Meteor 1-21 - Pass Details

Date: 26 September 2021
Orbit: 844 x 888 km, 81.2° (Epoch: 19 October)

Event Time Altitude Azimuth Distance (km) Brightness Sun altitude
Rises 16:31:34 0° 350° (N) 3,414 7.5 -12.5°
Reaches altitude 10° 16:34:00 10° 349° (NNW) 2,472 6.8 -13.0°
Maximum altitude 16:39:34 73° 265° (W) 882 4.5 -14.3°
Drops below altitude 10° 16:45:06 10° 181° (S) 2,454 6.6 -15.5°
Sets 16:47:31 0° 179° (S) 3,387 7.3 -16.1°
